| time (UTC) | temp C | wind direction | speed KPH | gust KPH | rain 1hr cm | rain 24hr cm | rain mn cm | humidity % | barometer mb |
| 20260505031442 | 10 | 225 | 4.8 | 11.3 | 0.00 | 0.00 | 0.00 | 84 | 1011.5 |
| 20260505030944 | 10 | 182 | 4.8 | 12.9 | 0.00 | 0.00 | 0.00 | 84 | 1011.5 |
| 20260505030442 | 10 | 189 | 6.4 | 16.1 | 0.00 | 0.00 | 0.00 | 84 | 1011.5 |
| 20260505030225 | 10 | 184 | 8.0 | 16.1 | 0.00 | 0.00 | 0.00 | 84 | 1011.6 |
| 20260505024943 | 10 | 196 | 6.4 | 14.5 | 0.00 | 0.00 | 0.00 | 83 | 1011.6 |
| 20260505024441 | 10 | 179 | 6.4 | 14.5 | 0.00 | 0.00 | 0.00 | 83 | 1011.5 |
| 20260505023942 | 10 | 205 | 6.4 | 14.5 | 0.00 | 0.00 | 0.00 | 83 | 1011.5 |
| 20260505023443 | 10 | 148 | 6.4 | 14.5 | 0.00 | 0.00 | 0.00 | 83 | 1011.5 |
| 20260505022943 | 11 | 232 | 6.4 | 16.1 | 0.00 | 0.00 | 0.00 | 83 | 1011.4 |
| 20260505022436 | 11 | 209 | 6.4 | 20.9 | 0.00 | 0.00 | 0.00 | 83 | 1011.5 |
| 20260505021931 | 11 | 200 | 6.4 | 20.9 | 0.00 | 0.00 | 0.00 | 82 | 1011.5 |
| 20260505021426 | 11 | 197 | 6.4 | 17.7 | 0.00 | 0.00 | 0.00 | 82 | 1011.6 |
| 20260505020927 | 11 | 194 | 6.4 | 19.3 | 0.00 | 0.00 | 0.00 | 82 | 1011.6 |
| 20260505020651 | 11 | 202 | 6.4 | 19.3 | 0.00 | 0.00 | 0.00 | 82 | 1011.6 |
| 20260505015926 | 11 | 225 | 6.4 | 17.7 | 0.00 | 0.00 | 0.00 | 82 | 1011.6 |
| 20260505015426 | 11 | 231 | 6.4 | 19.3 | 0.00 | 0.00 | 0.00 | 82 | 1011.6 |
| 20260505014925 | 11 | 209 | 8.0 | 19.3 | 0.00 | 0.00 | 0.00 | 81 | 1011.5 |
| 20260505014427 | 11 | 229 | 6.4 | 17.7 | 0.00 | 0.00 | 0.00 | 81 | 1011.5 |
| 20260505013926 | 11 | 180 | 6.4 | 14.5 | 0.00 | 0.00 | 0.00 | 81 | 1011.5 |
| 20260505013425 | 11 | 190 | 6.4 | 17.7 | 0.00 | 0.00 | 0.00 | 81 | 1011.5 |
| 20260505012924 | 11 | 225 | 6.4 | 17.7 | 0.00 | 0.00 | 0.00 | 81 | 1011.4 |
| 20260505012426 | 11 | 225 | 6.4 | 19.3 | 0.00 | 0.00 | 0.00 | 80 | 1011.3 |
| 20260505011924 | 11 | 207 | 8.0 | 19.3 | 0.00 | 0.00 | 0.00 | 80 | 1011.2 |
| 20260505011426 | 11 | 146 | 8.0 | 19.3 | 0.00 | 0.00 | 0.00 | 80 | 1011.1 |
| 20260505010928 | 11 | 198 | 6.4 | 19.3 | 0.00 | 0.00 | 0.00 | 80 | 1011.1 |
| 20260505010424 | 11 | 249 | 6.4 | 20.9 | 0.00 | 0.00 | 0.00 | 80 | 1011.1 |
| 20260505005926 | 11 | 209 | 8.0 | 20.9 | 0.00 | 0.00 | 0.00 | 79 | 1010.9 |
| 20260505005424 | 11 | 208 | 8.0 | 22.5 | 0.00 | 0.00 | 0.00 | 79 | 1010.8 |
| 20260505004928 | 11 | 271 | 8.0 | 22.5 | 0.00 | 0.00 | 0.00 | 79 | 1010.7 |
| 20260505004425 | 11 | 215 | 6.4 | 16.1 | 0.00 | 0.00 | 0.00 | 79 | 1010.7 |
| 20260505003924 | 11 | 213 | 8.0 | 16.1 | 0.00 | 0.00 | 0.00 | 78 | 1010.5 |
| 20260505003424 | 11 | 212 | 9.7 | 20.9 | 0.00 | 0.00 | 0.00 | 78 | 1010.5 |
| 20260505003155 | 12 | 201 | 9.7 | 24.1 | 0.00 | 0.00 | 0.00 | 77 | 1010.4 |
| 20260505002426 | 12 | 208 | 11.3 | 24.1 | 0.00 | 0.00 | 0.00 | 77 | 1010.4 |
| 20260505001923 | 12 | 196 | 9.7 | 22.5 | 0.00 | 0.00 | 0.00 | 76 | 1010.3 |
| 20260505001424 | 12 | 221 | 8.0 | 22.5 | 0.00 | 0.00 | 0.00 | 76 | 1010.2 |
| 20260505000925 | 12 | 211 | 8.0 | 20.9 | 0.00 | 0.00 | 0.00 | 75 | 1010.1 |
| 20260505000424 | 12 | 217 | 8.0 | 22.5 | 0.00 | 0.00 | 0.00 | 75 | 1010.1 |
| 20260504235927 | 12 | 173 | 8.0 | 22.5 | 0.00 | 0.00 | 0.00 | 74 | 1010.0 |
| 20260504235428 | 12 | 220 | 6.4 | 20.9 | 0.00 | 0.00 | 0.00 | 74 | 1010.0 |
| 20260504234926 | 12 | 211 | 6.4 | 17.7 | 0.00 | 0.00 | 0.00 | 73 | 1009.9 |
| 20260504234425 | 12 | 218 | 8.0 | 17.7 | 0.00 | 0.00 | 0.00 | 73 | 1009.9 |
| 20260504233927 | 12 | 186 | 8.0 | 17.7 | 0.00 | 0.00 | 0.00 | 72 | 1009.9 |
| 20260504233421 | 13 | 190 | 8.0 | 17.7 | 0.00 | 0.00 | 0.00 | 72 | 1009.9 |
| 20260504232925 | 13 | 152 | 8.0 | 22.5 | 0.00 | 0.00 | 0.00 | 71 | 1009.8 |
| 20260504231417 | 13 | 230 | 8.0 | 20.9 | 0.00 | 0.00 | 0.00 | 68 | 1009.7 |
| 20260504230918 | 13 | 197 | 9.7 | 22.5 | 0.00 | 0.00 | 0.00 | 67 | 1009.6 |
| 20260504230419 | 13 | 225 | 9.7 | 24.1 | 0.00 | 0.00 | 0.00 | 66 | 1009.6 |
| 20260504225920 | 13 | 231 | 11.3 | 29.0 | 0.00 | 0.00 | 0.00 | 66 | 1009.6 |
| 20260504225421 | 13 | 203 | 11.3 | 29.0 | 0.00 | 0.00 | 0.00 | 65 | 1009.5 |
| 20260504224919 | 14 | 207 | 11.3 | 27.4 | 0.00 | 0.00 | 0.00 | 65 | 1009.5 |
| 20260504224419 | 14 | 169 | 11.3 | 27.4 | 0.00 | 0.00 | 0.00 | 65 | 1009.6 |
| 20260504223920 | 14 | 167 | 9.7 | 25.7 | 0.00 | 0.00 | 0.00 | 64 | 1009.6 |
| 20260504223418 | 14 | 254 | 9.7 | 24.1 | 0.00 | 0.00 | 0.00 | 64 | 1009.5 |
| 20260504222918 | 14 | 200 | 9.7 | 27.4 | 0.00 | 0.00 | 0.00 | 63 | 1009.4 |
| 20260504222418 | 14 | 188 | 11.3 | 27.4 | 0.00 | 0.00 | 0.00 | 62 | 1009.4 |
| 20260504221918 | 15 | 208 | 11.3 | 27.4 | 0.00 | 0.00 | 0.00 | 60 | 1009.4 |
| 20260504221417 | 15 | 162 | 9.7 | 27.4 | 0.00 | 0.00 | 0.00 | 59 | 1009.5 |
| 20260504220919 | 15 | 198 | 9.7 | 22.5 | 0.00 | 0.00 | 0.00 | 59 | 1009.5 |
| 20260504220418 | 15 | 222 | 9.7 | 22.5 | 0.00 | 0.00 | 0.00 | 57 | 1009.3 |
| 20260504215918 | 16 | 221 | 9.7 | 22.5 | 0.00 | 0.00 | 0.00 | 55 | 1009.3 |
| 20260504215418 | 16 | 178 | 9.7 | 24.1 | 0.00 | 0.00 | 0.00 | 53 | 1009.3 |
| 20260504214914 | 16 | 188 | 8.0 | 24.1 | 0.00 | 0.00 | 0.00 | 53 | 1009.2 |
| 20260504214414 | 16 | 195 | 8.0 | 19.3 | 0.00 | 0.00 | 0.00 | 55 | 1009.3 |
| 20260504213914 | 16 | 211 | 9.7 | 24.1 | 0.00 | 0.00 | 0.00 | 55 | 1009.2 |
| 20260504213414 | 16 | 166 | 8.0 | 24.1 | 0.00 | 0.00 | 0.00 | 54 | 1009.3 |
| 20260504212915 | 16 | 222 | 8.0 | 19.3 | 0.00 | 0.00 | 0.00 | 54 | 1009.3 |
| 20260504212414 | 16 | 233 | 8.0 | 19.3 | 0.00 | 0.00 | 0.00 | 54 | 1009.2 |
| 20260504211914 | 16 | 153 | 8.0 | 20.9 | 0.00 | 0.00 | 0.00 | 53 | 1009.2 |
| 20260504211414 | 17 | 136 | 8.0 | 20.9 | 0.00 | 0.00 | 0.00 | 53 | 1009.3 |
| 20260504210912 | 17 | 138 | 8.0 | 17.7 | 0.00 | 0.00 | 0.00 | 53 | 1009.2 |
| 20260504210412 | 17 | 188 | 9.7 | 30.6 | 0.00 | 0.00 | 0.00 | 52 | 1009.2 |
| 20260504205912 | 17 | 213 | 11.3 | 30.6 | 0.00 | 0.00 | 0.00 | 52 | 1009.2 |
| 20260504205640 | 17 | 225 | 12.9 | 32.2 | 0.00 | 0.00 | 0.00 | 51 | 1009.1 |
| 20260504205138 | 17 | 250 | 11.3 | 32.2 | 0.00 | 0.00 | 0.00 | 50 | 1009.1 |
| 20260504204411 | 17 | 225 | 11.3 | 32.2 | 0.00 | 0.00 | 0.00 | 49 | 1009.1 |
| 20260504204140 | 17 | 202 | 12.9 | 32.2 | 0.00 | 0.00 | 0.00 | 49 | 1009.0 |
| 20260504203643 | 17 | 179 | 12.9 | 27.4 | 0.00 | 0.00 | 0.00 | 50 | 1008.9 |
| 20260504202906 | 18 | 197 | 9.7 | 29.0 | 0.00 | 0.00 | 0.00 | 50 | 1008.8 |
| 20260504202407 | 18 | 199 | 11.3 | 29.0 | 0.00 | 0.00 | 0.00 | 50 | 1008.9 |
| 20260504201906 | 17 | 224 | 11.3 | 32.2 | 0.00 | 0.00 | 0.00 | 51 | 1009.0 |
| 20260504201406 | 17 | 210 | 9.7 | 32.2 | 0.00 | 0.00 | 0.00 | 50 | 1008.9 |
| 20260504200904 | 18 | 217 | 9.7 | 25.7 | 0.00 | 0.00 | 0.00 | 50 | 1008.9 |
| 20260504200404 | 18 | 206 | 11.3 | 24.1 | 0.00 | 0.00 | 0.00 | 52 | 1008.9 |
| 20260504195904 | 17 | 250 | 11.3 | 30.6 | 0.00 | 0.00 | 0.00 | 50 | 1009.0 |
| 20260504195404 | 17 | 215 | 9.7 | 30.6 | 0.00 | 0.00 | 0.00 | 50 | 1008.9 |
| 20260504194903 | 17 | 194 | 9.7 | 30.6 | 0.00 | 0.00 | 0.00 | 50 | 1008.9 |
| 20260504194403 | 17 | 178 | 11.3 | 32.2 | 0.00 | 0.00 | 0.00 | 49 | 1009.0 |
| 20260504194129 | 17 | 181 | 12.9 | 32.2 | 0.00 | 0.00 | 0.00 | 48 | 1008.9 |
| 20260504193401 | 18 | 193 | 12.9 | 35.4 | 0.00 | 0.00 | 0.00 | 47 | 1009.0 |
| 20260504192401 | 18 | 205 | 12.9 | 32.2 | 0.00 | 0.00 | 0.00 | 46 | 1008.9 |
| 20260504191904 | 18 | 172 | 12.9 | 40.2 | 0.00 | 0.00 | 0.00 | 47 | 1009.0 |
| 20260504191401 | 18 | 236 | 11.3 | 40.2 | 0.00 | 0.00 | 0.00 | 45 | 1009.1 |
| 20260504190903 | 18 | 173 | 11.3 | 32.2 | 0.00 | 0.00 | 0.00 | 47 | 1009.1 |
| 20260504190400 | 18 | 227 | 12.9 | 40.2 | 0.00 | 0.00 | 0.00 | 44 | 1009.3 |
| 20260504185902 | 18 | 196 | 14.5 | 40.2 | 0.00 | 0.00 | 0.00 | 42 | 1009.2 |
| 20260504185408 | 18 | 239 | 12.9 | 33.8 | 0.00 | 0.00 | 0.00 | 40 | 1009.5 |
| 20260504184907 | 18 | 229 | 11.3 | 29.0 | 0.00 | 0.00 | 0.00 | 42 | 1009.4 |
| 20260504184402 | 18 | 287 | 12.9 | 29.0 | 0.00 | 0.00 | 0.00 | 41 | 1009.4 |
| 20260504184138 | 18 | 176 | 14.5 | 35.4 | 0.00 | 0.00 | 0.00 | 43 | 1009.4 |
| 20260504183403 | 18 | 223 | 12.9 | 35.4 | 0.00 | 0.00 | 0.00 | 41 | 1009.4 |
| 20260504182901 | 19 | 157 | 12.9 | 35.4 | 0.00 | 0.00 | 0.00 | 39 | 1009.5 |
| 20260504182414 | 19 | 200 | 14.5 | 35.4 | 0.00 | 0.00 | 0.00 | 39 | 1009.7 |
| 20260504181629 | 19 | 175 | 12.9 | 35.4 | 0.00 | 0.00 | 0.00 | 40 | 1009.5 |
| 20260504180902 | 19 | 170 | 12.9 | 27.4 | 0.00 | 0.00 | 0.00 | 38 | 1009.7 |
| 20260504180359 | 20 | 184 | 11.3 | 25.7 | 0.00 | 0.00 | 0.00 | 39 | 1009.8 |
| 20260504175853 | 20 | 210 | 12.9 | 37.0 | 0.00 | 0.00 | 0.00 | 39 | 1009.6 |
| 20260504175617 | 20 | 166 | 12.9 | 37.0 | 0.00 | 0.00 | 0.00 | 38 | 1009.6 |
| 20260504174846 | 20 | 260 | 12.9 | 37.0 | 0.00 | 0.00 | 0.00 | 40 | 1009.6 |
| 20260504174345 | 20 | 263 | 12.9 | 37.0 | 0.00 | 0.00 | 0.00 | 37 | 1009.5 |
| 20260504173846 | 20 | 286 | 12.9 | 37.0 | 0.00 | 0.00 | 0.00 | 38 | 1009.5 |
| 20260504173345 | 20 | 229 | 12.9 | 37.0 | 0.00 | 0.00 | 0.00 | 37 | 1009.6 |
| 20260504172843 | 20 | 219 | 12.9 | 32.2 | 0.00 | 0.00 | 0.00 | 38 | 1009.4 |
| 20260504172617 | 20 | 197 | 12.9 | 40.2 | 0.00 | 0.00 | 0.00 | 36 | 1009.7 |
| 20260504171845 | 20 | 254 | 14.5 | 40.2 | 0.00 | 0.00 | 0.00 | 39 | 1009.6 |
| 20260504171343 | 20 | 194 | 12.9 | 40.2 | 0.00 | 0.00 | 0.00 | 37 | 1009.7 |
| 20260504170841 | 20 | 180 | 11.3 | 30.6 | 0.00 | 0.00 | 0.00 | 36 | 1009.7 |
| 20260504170344 | 20 | 229 | 12.9 | 32.2 | 0.00 | 0.00 | 0.00 | 34 | 1009.7 |
| 20260504160329 | 20 | 184 | 11.3 | 30.6 | 0.00 | 0.00 | 0.00 | 39 | 1010.2 |
| 20260504150829 | 20 | 346 | 8.0 | 24.1 | 0.00 | 0.00 | 0.00 | 37 | 1010.5 |
| 20260504150339 | 19 | 269 | 9.7 | 30.6 | 0.00 | 0.00 | 0.00 | 40 | 1010.7 |
| 20260504141326 | 17 | 226 | 9.7 | 22.5 | 0.00 | 0.00 | 0.00 | 43 | 1011.0 |
| 20260504140830 | 17 | 253 | 9.7 | 25.7 | 0.00 | 0.00 | 0.00 | 45 | 1011.1 |
| 20260504130803 | 15 | 200 | 6.4 | 17.7 | 0.00 | 0.00 | 0.00 | 53 | 1011.6 |
| 20260504130302 | 15 | 209 | 6.4 | 17.7 | 0.00 | 0.00 | 0.00 | 53 | 1011.6 |
| 20260504120301 | 11 | 217 | 6.4 | 20.9 | 0.00 | 0.00 | 0.00 | 62 | 1012.0 |
| 20260504110300 | 7 | 231 | 3.2 | 8.0 | 0.00 | 0.00 | 0.00 | 78 | 1011.7 |
| 20260504100253 | 5 | 211 | 3.2 | 12.9 | 0.00 | 0.00 | 0.00 | 82 | 1011.5 |
| 20260504081738 | 5 | 205 | 0.0 | 3.2 | 0.00 | 0.00 | 0.00 | 80 | 1011.3 |
| 20260504081237 | 5 | 216 | 0.0 | 1.6 | 0.00 | 0.00 | 0.00 | 80 | 1011.3 |
| 20260504080737 | 6 | 209 | 1.6 | 4.8 | 0.00 | 0.00 | 0.00 | 80 | 1011.3 |
| 20260504080454 | 6 | 209 | 1.6 | 4.8 | 0.00 | 0.00 | 0.00 | 80 | 1011.2 |
| 20260504070232 | 4 | 165 | 0.0 | 3.2 | 0.00 | 0.00 | 0.00 | 81 | 1011.2 |
| 20260504060228 | 3 | 200 | 0.0 | 1.6 | 0.00 | 0.00 | 0.00 | 79 | 1010.9 |
| 20260504050722 | 3 | 221 | 0.0 | 3.2 | 0.00 | 0.00 | 0.00 | 75 | 1011.0 |
| 20260504050218 | 3 | 221 | 0.0 | 3.2 | 0.00 | 0.00 | 0.00 | 75 | 1011.1 |
| 20260504045714 | 3 | 223 | 0.0 | 1.6 | 0.00 | 0.00 | 0.00 | 75 | 1011.1 |
| 20260504045216 | 3 | 223 | 0.0 | 1.6 | 0.00 | 0.00 | 0.00 | 75 | 1011.1 |
| 20260504044715 | 3 | 223 | 0.0 | 1.6 | 0.00 | 0.00 | 0.00 | 74 | 1011.2 |
| 20260504044213 | 3 | 223 | 0.0 | 1.6 | 0.00 | 0.00 | 0.00 | 74 | 1011.1 |
| 20260504043937 | 3 | 223 | 0.0 | 1.6 | 0.00 | 0.00 | 0.00 | 74 | 1011.1 |
| 20260504043205 | 3 | 223 | 0.0 | 1.6 | 0.00 | 0.00 | 0.00 | 74 | 1011.2 |
| 20260504042705 | 3 | 223 | 0.0 | 1.6 | 0.00 | 0.00 | 0.00 | 74 | 1011.1 |
| 20260504042439 | 3 | 223 | 0.0 | 4.8 | 0.00 | 0.00 | 0.00 | 74 | 1011.1 |
| 20260504041707 | 3 | 248 | 0.0 | 4.8 | 0.00 | 0.00 | 0.00 | 74 | 1011.0 |
| 20260504041202 | 3 | 218 | 0.0 | 1.6 | 0.00 | 0.00 | 0.00 | 74 | 1011.0 |
| 20260504040700 | 3 | 218 | 0.0 | 4.8 | 0.00 | 0.00 | 0.00 | 74 | 1011.0 |
| 20260504035700 | 3 | 221 | 0.0 | 3.2 | 0.00 | 0.00 | 0.00 | 74 | 1011.1 |
| 20260504035155 | 3 | 274 | 0.0 | 1.6 | 0.00 | 0.00 | 0.00 | 74 | 1011.0 |
| 20260504034654 | 3 | 274 | 0.0 | 1.6 | 0.00 | 0.00 | 0.00 | 74 | 1011.0 |
| 20260504034428 | 3 | 274 | 0.0 | 1.6 | 0.00 | 0.00 | 0.00 | 74 | 1010.9 |
| 20260504033656 | 3 | 274 | 0.0 | 1.6 | 0.00 | 0.00 | 0.00 | 74 | 1010.8 |
| 20260504032650 | 3 | 274 | 0.0 | 1.6 | 0.00 | 0.00 | 0.00 | 74 | 1010.8 |
| 20260504032417 | 3 | 274 | 0.0 | 1.6 | 0.00 | 0.00 | 0.00 | 74 | 1010.8 |
| 20260504031917 | 3 | 274 | 0.0 | 1.6 | 0.00 | 0.00 | 0.00 | 74 | 1010.7 |